| time (UTC) | temp C | wind direction | speed KPH | gust KPH | rain 1hr cm | rain 24hr cm | rain mn cm | humidity % | barometer mb |
| 20260906060104 | 18 | 256 | 3.2 | 8.0 | 0.00 | 0.00 | 0.00 | 87 | 1017.7 |
| 20260906054602 | 19 | 275 | 1.6 | 4.8 | 0.00 | 0.00 | 0.00 | 85 | 1017.9 |
| 20260906053101 | 20 | 275 | 3.2 | 6.4 | 0.00 | 0.00 | 0.00 | 84 | 1018.1 |
| 20260906051609 | 20 | 278 | 3.2 | 6.4 | 0.00 | 0.00 | 0.00 | 84 | 1018.2 |
| 20260906044600 | 19 | 311 | 3.2 | 11.3 | 0.00 | 0.00 | 0.00 | 85 | 1018.1 |
| 20260906043100 | 19 | 350 | 3.2 | 6.4 | 0.00 | 0.00 | 0.00 | 86 | 1018.0 |
| 20260906041614 | 19 | 252 | 1.6 | 3.2 | 0.00 | 0.00 | 0.00 | 86 | 1018.1 |
| 20260906040113 | 20 | 0 | 1.6 | 3.2 | 0.00 | 0.00 | 0.00 | 85 | 1018.5 |
| 20260906034559 | 20 | 0 | 0.0 | 11.3 | 0.00 | 0.00 | 0.00 | 84 | 1018.5 |
| 20260906033106 | 20 | 259 | 4.8 | 11.3 | 0.00 | 0.00 | 0.00 | 85 | 1018.7 |
| 20260906031600 | 19 | 265 | 4.8 | 9.7 | 0.00 | 0.00 | 0.00 | 87 | 1018.8 |
| 20260906030116 | 18 | 263 | 3.2 | 4.8 | 0.00 | 0.00 | 0.00 | 87 | 1018.6 |
| 20260906024627 | 19 | 0 | 1.6 | 3.2 | 0.00 | 0.00 | 0.00 | 86 | 1018.6 |
| 20260906023104 | 19 | 0 | 0.0 | 4.8 | 0.00 | 0.00 | 0.00 | 86 | 1018.2 |
| 20260906021600 | 19 | 263 | 3.2 | 6.4 | 0.00 | 0.00 | 0.00 | 86 | 1018.2 |
| 20260906020103 | 19 | 0 | 0.0 | 3.2 | 0.00 | 0.00 | 0.00 | 85 | 1018.5 |
| 20260906014609 | 20 | 268 | 0.0 | 4.8 | 0.00 | 0.00 | 0.00 | 85 | 1018.3 |
| 20260906013058 | 20 | 268 | 1.6 | 4.8 | 0.00 | 0.00 | 0.00 | 84 | 1018.3 |
| 20260906011602 | 20 | 268 | 1.6 | 4.8 | 0.00 | 0.00 | 0.00 | 82 | 1018.1 |
| 20260906010111 | 20 | 267 | 3.2 | 9.7 | 0.00 | 0.00 | 0.00 | 81 | 1017.9 |
| 20260906004607 | 20 | 280 | 3.2 | 6.4 | 0.00 | 0.00 | 0.00 | 80 | 1017.7 |
| 20260906003121 | 21 | 265 | 3.2 | 11.3 | 0.00 | 0.00 | 0.00 | 79 | 1017.4 |
| 20260906001614 | 21 | 251 | 3.2 | 11.3 | 0.00 | 0.00 | 0.00 | 80 | 1017.3 |
| 20260906000109 | 21 | 239 | 4.8 | 11.3 | 0.00 | 0.00 | 0.00 | 78 | 1017.3 |
| 20260905234608 | 22 | 273 | 1.6 | 4.8 | 0.00 | 0.00 | 0.00 | 78 | 1017.3 |
| 20260905233104 | 22 | 319 | 0.0 | 17.7 | 0.00 | 0.00 | 0.00 | 76 | 1017.4 |
| 20260905231601 | 22 | 24 | 3.2 | 22.5 | 0.00 | 0.00 | 0.00 | 75 | 1017.3 |
| 20260905230100 | 23 | 335 | 6.4 | 19.3 | 0.00 | 0.00 | 0.00 | 73 | 1017.2 |
| 20260905224602 | 23 | 311 | 8.0 | 22.5 | 0.00 | 0.00 | 0.00 | 71 | 1016.9 |
| 20260905223105 | 24 | 329 | 9.7 | 20.9 | 0.00 | 0.00 | 0.00 | 69 | 1017.2 |
| 20260905221602 | 25 | 293 | 8.0 | 20.9 | 0.00 | 0.00 | 0.00 | 69 | 1017.3 |
| 20260905220109 | 25 | 360 | 6.4 | 20.9 | 0.00 | 0.00 | 0.00 | 68 | 1017.0 |
| 20260905214602 | 25 | 326 | 6.4 | 25.7 | 0.00 | 0.00 | 0.00 | 69 | 1017.1 |
| 20260905213105 | 25 | 272 | 8.0 | 33.8 | 0.00 | 0.00 | 0.00 | 67 | 1017.1 |
| 20260905211607 | 26 | 257 | 6.4 | 14.5 | 0.00 | 0.00 | 0.00 | 66 | 1017.0 |
| 20260905210108 | 26 | 317 | 8.0 | 16.1 | 0.00 | 0.00 | 0.00 | 69 | 1017.1 |
| 20260905204609 | 26 | 263 | 8.0 | 24.1 | 0.00 | 0.00 | 0.00 | 68 | 1017.1 |
| 20260905203101 | 25 | 279 | 6.4 | 20.9 | 0.00 | 0.00 | 0.00 | 70 | 1016.9 |
| 20260905201604 | 25 | 267 | 4.8 | 14.5 | 0.00 | 0.00 | 0.00 | 71 | 1017.1 |
| 20260905200109 | 23 | 270 | 4.8 | 14.5 | 0.00 | 0.00 | 0.00 | 74 | 1017.4 |
| 20260905194604 | 22 | 272 | 6.4 | 17.7 | 0.00 | 0.00 | 0.00 | 75 | 1017.4 |
| 20260905193125 | 22 | 352 | 4.8 | 19.3 | 0.00 | 0.00 | 0.00 | 77 | 1017.3 |
| 20260905191606 | 21 | 348 | 4.8 | 22.5 | 0.00 | 0.00 | 0.00 | 79 | 1017.5 |
| 20260905190103 | 21 | 252 | 6.4 | 17.7 | 0.00 | 0.00 | 0.00 | 78 | 1017.7 |
| 20260905184611 | 20 | 277 | 4.8 | 11.3 | 0.00 | 0.00 | 0.00 | 80 | 1017.7 |
| 20260905183107 | 20 | 329 | 3.2 | 16.1 | 0.00 | 0.00 | 0.00 | 82 | 1017.3 |
| 20260905181605 | 20 | 258 | 8.0 | 17.7 | 0.00 | 0.00 | 0.00 | 81 | 1017.7 |
| 20260905174559 | 22 | 251 | 8.0 | 22.5 | 0.00 | 0.00 | 0.00 | 75 | 1019.5 |
| 20260905173103 | 23 | 267 | 8.0 | 22.5 | 0.00 | 0.00 | 0.00 | 74 | 1019.5 |
| 20260905171604 | 24 | 10 | 6.4 | 24.1 | 0.00 | 0.00 | 0.00 | 77 | 1019.9 |
| 20260905170101 | 25 | 323 | 9.7 | 24.1 | 0.00 | 0.00 | 0.00 | 74 | 1020.3 |
| 20260905164606 | 25 | 13 | 3.2 | 22.5 | 0.00 | 0.00 | 0.00 | 72 | 1020.2 |
| 20260905163106 | 26 | 360 | 4.8 | 19.3 | 0.00 | 0.00 | 0.00 | 69 | 1020.2 |
| 20260905161619 | 26 | 26 | 6.4 | 20.9 | 0.00 | 0.00 | 0.00 | 69 | 1020.0 |
| 20260905160107 | 26 | 338 | 4.8 | 14.5 | 0.00 | 0.00 | 0.00 | 71 | 1020.3 |
| 20260905154605 | 26 | 302 | 8.0 | 25.7 | 0.00 | 0.00 | 0.00 | 70 | 1020.4 |
| 20260905153107 | 26 | 275 | 6.4 | 22.5 | 0.00 | 0.00 | 0.00 | 68 | 1020.3 |
| 20260905151605 | 26 | 321 | 8.0 | 22.5 | 0.00 | 0.00 | 0.00 | 69 | 1020.0 |
| 20260905150104 | 26 | 273 | 9.7 | 20.9 | 0.00 | 0.00 | 0.00 | 71 | 1019.7 |
| 20260905144604 | 26 | 265 | 4.8 | 25.7 | 0.00 | 0.00 | 0.00 | 73 | 1019.8 |
| 20260905143108 | 25 | 333 | 8.0 | 22.5 | 0.00 | 0.00 | 0.00 | 74 | 1019.6 |
| 20260905141602 | 25 | 296 | 6.4 | 22.5 | 0.00 | 0.00 | 0.00 | 75 | 1019.6 |
| 20260905134608 | 25 | 249 | 8.0 | 22.5 | 0.00 | 0.00 | 0.00 | 77 | 1019.5 |
| 20260905133101 | 24 | 16 | 8.0 | 19.3 | 0.00 | 0.00 | 0.00 | 79 | 1019.6 |
| 20260905131605 | 23 | 284 | 6.4 | 17.7 | 0.00 | 0.00 | 0.00 | 81 | 1019.9 |
| 20260905124605 | 23 | 313 | 4.8 | 17.7 | 0.00 | 0.00 | 0.00 | 82 | 1019.9 |
| 20260905123105 | 22 | 335 | 6.4 | 19.3 | 0.00 | 0.00 | 0.00 | 82 | 1019.9 |
| 20260905121602 | 22 | 251 | 8.0 | 20.9 | 0.00 | 0.00 | 0.00 | 83 | 1019.8 |
| 20260905120107 | 22 | 248 | 6.4 | 17.7 | 0.00 | 0.00 | 0.00 | 85 | 1019.6 |
| 20260905114603 | 21 | 9 | 3.2 | 12.9 | 0.00 | 0.00 | 0.00 | 86 | 1019.4 |
| 20260905113105 | 21 | 315 | 4.8 | 12.9 | 0.00 | 0.00 | 0.00 | 86 | 1019.4 |
| 20260905111646 | 21 | 273 | 4.8 | 12.9 | 0.00 | 0.00 | 0.00 | 87 | 1019.2 |
| 20260905104603 | 21 | 296 | 4.8 | 12.9 | 0.00 | 0.00 | 0.00 | 88 | 1018.9 |
| 20260905103105 | 21 | 259 | 4.8 | 11.3 | 0.00 | 0.00 | 0.00 | 88 | 1018.9 |
| 20260905101603 | 21 | 248 | 3.2 | 11.3 | 0.00 | 0.00 | 0.00 | 88 | 1018.9 |
| 20260905100110 | 21 | 281 | 3.2 | 12.9 | 0.00 | 0.00 | 0.00 | 88 | 1018.7 |
| 20260905094604 | 20 | 251 | 4.8 | 11.3 | 0.00 | 0.00 | 0.00 | 89 | 1018.8 |
| 20260905093103 | 20 | 279 | 3.2 | 9.7 | 0.00 | 0.00 | 0.00 | 89 | 1018.8 |
| 20260905091610 | 20 | 266 | 3.2 | 11.3 | 0.00 | 0.00 | 0.00 | 89 | 1018.7 |
| 20260905084602 | 20 | 254 | 0.0 | 6.4 | 0.00 | 0.00 | 0.00 | 89 | 1018.9 |
| 20260905083059 | 20 | 0 | 1.6 | 11.3 | 0.00 | 0.00 | 0.00 | 88 | 1019.2 |
| 20260905081607 | 20 | 0 | 0.0 | 4.8 | 0.00 | 0.00 | 0.00 | 89 | 1019.3 |
| 20260905080105 | 20 | 250 | 1.6 | 6.4 | 0.00 | 0.00 | 0.00 | 89 | 1019.2 |
| 20260905074601 | 20 | 259 | 1.6 | 4.8 | 0.00 | 0.00 | 0.00 | 90 | 1019.7 |
| 20260905073102 | 20 | 241 | 0.0 | 3.2 | 0.00 | 0.00 | 0.00 | 90 | 1019.6 |
| 20260905071603 | 20 | 241 | 1.6 | 6.4 | 0.00 | 0.00 | 0.00 | 90 | 1019.7 |
| 20260905070108 | 20 | 0 | 1.6 | 3.2 | 0.00 | 0.00 | 0.00 | 90 | 1019.9 |
| 20260905064602 | 20 | 0 | 0.0 | 4.8 | 0.00 | 0.00 | 0.00 | 90 | 1020.1 |
| 20260905063104 | 20 | 0 | 1.6 | 6.4 | 0.00 | 0.00 | 0.00 | 90 | 1020.3 |
| 20260905061613 | 20 | 283 | 1.6 | 3.2 | 0.00 | 0.00 | 0.00 | 90 | 1020.3 |